When you browse on this site, cookies collect data to enhance your experience and personalize the content and advertising you see.
Visit our Privacy Policy to learn more. By continuing to use the site, you agree to this use of cookies and data.
  • In Portugal
  • List of Countries
  • For 7 days
  • Water Temperature
  • Weather Map
  • Weather Widgets
  • user-avatar
    Login

    Hourly Weather Chongaj

    Today, 10 April, Friday

    Time Temperature Precipitation Wind Pressure Humidity
    00:00 +29°C° 0.1 mm 1 mps 739 mmHg 69%
    01:00 +26°C° 0 mm 0 mps 739 mmHg 70%
    02:00 +28°C° 0.2 mm 1 mps 739 mmHg 75%
    03:00 +27°C° 0.2 mm 1 mps 739 mmHg 79%
    04:00 +26°C° 0.2 mm 1 mps 739 mmHg 83%
    05:00 +27°C° 0.1 mm 2 mps 739 mmHg 81%
    06:00 +27°C° 0.1 mm 2 mps 740 mmHg 80%
    07:00 +28°C° 0 mm 1 mps 740 mmHg 74%
    08:00 +30°C° 0.1 mm 2 mps 741 mmHg 68%
    09:00 +31°C° 0.1 mm 2 mps 741 mmHg 62%
    10:00 +34°C° 0.1 mm 2 mps 741 mmHg 56%
    11:00 +34°C° 0 mm 2 mps 741 mmHg 54%
    12:00 +35°C° 0 mm 2 mps 740 mmHg 51%
    13:00 +36°C° 0 mm 2 mps 739 mmHg 49%
    14:00 +35°C° 0 mm 1 mps 738 mmHg 48%
    15:00 +35°C° 0 mm 1 mps 738 mmHg 48%
    16:00 +35°C° 0 mm 1 mps 737 mmHg 47%
    17:00 +34°C° 0 mm 1 mps 737 mmHg 52%
    18:00 +32°C° 0 mm 1 mps 738 mmHg 57%
    19:00 +31°C° 0 mm 1 mps 738 mmHg 62%
    20:00 +30°C° 0 mm 1 mps 739 mmHg 65%
    21:00 +30°C° 0 mm 1 mps 739 mmHg 67%
    22:00 +29°C° 0 mm 1 mps 739 mmHg 69%
    23:00 +29°C° 0.1 mm 1 mps 739 mmHg 70%

    Tomorrow, 11 April, Saturday

    Time Temperature Precipitation Wind Pressure Humidity
    00:00 +29°C° 0.1 mm 1 mps 739 mmHg 72%
    01:00 +28°C° 0.1 mm 1 mps 739 mmHg 73%
    02:00 +28°C° 0.5 mm 1 mps 739 mmHg 77%
    03:00 +27°C° 0.5 mm 1 mps 738 mmHg 82%
    04:00 +26°C° 0.5 mm 2 mps 738 mmHg 86%
    05:00 +27°C° 0.1 mm 2 mps 739 mmHg 85%
    06:00 +27°C° 0.1 mm 2 mps 739 mmHg 83%
    07:00 +27°C° 0.1 mm 2 mps 740 mmHg 81%
    08:00 +29°C° 0 mm 2 mps 740 mmHg 74%
    09:00 +31°C° 0 mm 2 mps 740 mmHg 66%
    10:00 +34°C° 0 mm 2 mps 741 mmHg 59%
    11:00 +35°C° 0 mm 2 mps 740 mmHg 53%
    12:00 +36°C° 0 mm 1 mps 739 mmHg 46%
    13:00 +39°C° 0 mm 1 mps 739 mmHg 40%
    14:00 +37°C° 0 mm 1 mps 738 mmHg 41%
    15:00 +37°C° 0 mm 1 mps 737 mmHg 41%
    16:00 +36°C° 0 mm 1 mps 736 mmHg 42%
    17:00 +35°C° 0 mm 1 mps 736 mmHg 46%
    18:00 +34°C° 0 mm 1 mps 737 mmHg 51%
    19:00 +32°C° 0 mm 1 mps 737 mmHg 55%
    20:00 +32°C° 0.1 mm 1 mps 737 mmHg 57%
    21:00 +31°C° 0.1 mm 1 mps 738 mmHg 60%
    22:00 +30°C° 0.1 mm 1 mps 738 mmHg 63%
    23:00 +30°C° 0 mm 1 mps 738 mmHg 66%

    Day after tomorrow, 12 April, Sunday

    Time Temperature Precipitation Wind Pressure Humidity
    00:00 +29°C° 0 mm 1 mps 738 mmHg 69%
    01:00 +29°C° 0 mm 1 mps 738 mmHg 72%
    02:00 +28°C° 0.1 mm 1 mps 738 mmHg 74%
    03:00 +28°C° 0.1 mm 1 mps 737 mmHg 77%
    04:00 +27°C° 0.1 mm 1 mps 737 mmHg 79%
    05:00 +27°C° 0.3 mm 1 mps 738 mmHg 81%
    06:00 +27°C° 0.3 mm 1 mps 738 mmHg 83%
    07:00 +27°C° 0.3 mm 2 mps 739 mmHg 85%
    08:00 +29°C° 0.5 mm 2 mps 739 mmHg 77%
    09:00 +31°C° 0.5 mm 2 mps 740 mmHg 70%
    10:00 +34°C° 0.5 mm 2 mps 740 mmHg 62%
    11:00 +35°C° 0.6 mm 2 mps 739 mmHg 56%
    12:00 +35°C° 0.6 mm 1 mps 739 mmHg 50%
    13:00 +37°C° 0.6 mm 1 mps 738 mmHg 43%
    14:00 +37°C° 0 mm 2 mps 737 mmHg 43%
    15:00 +37°C° 0 mm 2 mps 737 mmHg 42%
    16:00 +37°C° 0 mm 2 mps 736 mmHg 41%
    17:00 +35°C° 0 mm 2 mps 737 mmHg 47%
    18:00 +34°C° 0 mm 2 mps 737 mmHg 52%
    19:00 +31°C° 0 mm 1 mps 737 mmHg 57%
    20:00 +30°C° 0.3 mm 2 mps 738 mmHg 60%
    21:00 +29°C° 0.3 mm 2 mps 738 mmHg 64%
    22:00 +28°C° 0.3 mm 3 mps 739 mmHg 67%
    23:00 +27°C° 1.1 mm 2 mps 739 mmHg 72%

    13 April, Monday

    Time Temperature Precipitation Wind Pressure Humidity
    00:00 +26°C° 1.1 mm 1 mps 739 mmHg 78%
    01:00 +26°C° 1.1 mm 1 mps 739 mmHg 83%
    02:00 +25°C° 0.5 mm 1 mps 739 mmHg 84%
    03:00 +23°C° 0.5 mm 0 mps 738 mmHg 84%
    04:00 +23°C° 0.5 mm 0 mps 738 mmHg 85%
    05:00 +25°C° 0.1 mm 1 mps 738 mmHg 83%
    06:00 +25°C° 0.1 mm 1 mps 739 mmHg 82%
    07:00 +26°C° 0.1 mm 1 mps 740 mmHg 80%
    08:00 +27°C° 0 mm 1 mps 740 mmHg 74%
    09:00 +27°C° 0 mm 0 mps 740 mmHg 68%
    10:00 +28°C° 0 mm 0 mps 740 mmHg 62%
    11:00 +29°C° 0 mm 0 mps 740 mmHg 59%
    12:00 +30°C° 0 mm 0 mps 739 mmHg 56%
    13:00 +33°C° 0 mm 1 mps 739 mmHg 53%
    14:00 +33°C° 0.1 mm 1 mps 738 mmHg 53%
    15:00 +33°C° 0.1 mm 1 mps 738 mmHg 53%
    16:00 +33°C° 0.1 mm 1 mps 737 mmHg 53%
    17:00 +31°C° 0.3 mm 1 mps 737 mmHg 59%
    18:00 +30°C° 0.3 mm 1 mps 737 mmHg 64%
    19:00 +29°C° 0.3 mm 1 mps 738 mmHg 69%
    20:00 +28°C° 0 mm 1 mps 738 mmHg 69%
    21:00 +28°C° 0 mm 2 mps 739 mmHg 69%
    22:00 +27°C° 0 mm 2 mps 739 mmHg 69%
    23:00 +27°C° 0 mm 1 mps 739 mmHg 69%

    14 April, Tuesday

    Time Temperature Precipitation Wind Pressure Humidity
    00:00 +27°C° 0 mm 1 mps 739 mmHg 69%
    01:00 +25°C° 0 mm 0 mps 739 mmHg 69%
    02:00 +24°C° 0 mm 0 mps 739 mmHg 70%
    03:00 +26°C° 0 mm 1 mps 739 mmHg 72%
    04:00 +25°C° 0 mm 1 mps 739 mmHg 73%
    05:00 +25°C° 0 mm 1 mps 739 mmHg 73%
    06:00 +25°C° 0 mm 1 mps 740 mmHg 73%
    07:00 +25°C° 0 mm 1 mps 740 mmHg 72%
    08:00 +27°C° 0 mm 1 mps 740 mmHg 66%
    09:00 +29°C° 0 mm 1 mps 740 mmHg 60%
    10:00 +31°C° 0 mm 1 mps 741 mmHg 54%
    11:00 +30°C° 0 mm 0 mps 740 mmHg 51%
    12:00 +31°C° 0 mm 0 mps 739 mmHg 48%
    13:00 +32°C° 0 mm 0 mps 739 mmHg 45%
    14:00 +32°C° 0 mm 0 mps 738 mmHg 46%
    15:00 +32°C° 0 mm 0 mps 738 mmHg 47%
    16:00 +33°C° 0 mm 1 mps 737 mmHg 48%
    17:00 +32°C° 0 mm 1 mps 737 mmHg 51%
    18:00 +31°C° 0 mm 1 mps 738 mmHg 55%
    19:00 +30°C° 0 mm 1 mps 738 mmHg 58%
    20:00 +30°C° 0 mm 1 mps 738 mmHg 60%
    21:00 +29°C° 0 mm 1 mps 739 mmHg 63%
    22:00 +29°C° 0 mm 1 mps 739 mmHg 65%
    23:00 +26°C° 0.2 mm 0 mps 739 mmHg 67%

    15 April, Wednesday

    Time Temperature Precipitation Wind Pressure Humidity
    00:00 +26°C° 0.2 mm 0 mps 739 mmHg 69%
    01:00 +25°C° 0.2 mm 0 mps 739 mmHg 71%
    02:00 +25°C° 0.2 mm 0 mps 739 mmHg 73%
    03:00 +26°C° 0.2 mm 1 mps 739 mmHg 76%
    04:00 +26°C° 0.2 mm 1 mps 739 mmHg 78%
    05:00 +26°C° 0 mm 1 mps 739 mmHg 78%
    06:00 +26°C° 0 mm 1 mps 739 mmHg 78%
    07:00 +26°C° 0 mm 2 mps 740 mmHg 78%
    08:00 +28°C° 0 mm 2 mps 740 mmHg 71%
    09:00 +29°C° 0 mm 2 mps 740 mmHg 63%
    10:00 +31°C° 0 mm 2 mps 740 mmHg 56%
    11:00 +34°C° 0 mm 2 mps 740 mmHg 51%
    12:00 +35°C° 0 mm 1 mps 739 mmHg 45%
    13:00 +37°C° 0 mm 1 mps 738 mmHg 40%
    14:00 +36°C° 0 mm 1 mps 738 mmHg 41%
    15:00 +36°C° 0 mm 1 mps 737 mmHg 41%
    16:00 +35°C° 0 mm 1 mps 736 mmHg 42%
    17:00 +34°C° 0.1 mm 1 mps 737 mmHg 47%
    18:00 +32°C° 0.1 mm 1 mps 737 mmHg 52%
    19:00 +31°C° 0.1 mm 1 mps 737 mmHg 57%
    20:00 +30°C° 0 mm 1 mps 738 mmHg 59%
    21:00 +30°C° 0 mm 1 mps 738 mmHg 61%
    22:00 +29°C° 0 mm 1 mps 738 mmHg 64%
    23:00 +29°C° 0 mm 1 mps 738 mmHg 65%
    Show more